Clyde Park, MT

4:25 AM MST on February 08, 2016 (GMT -0700)
Mission

Weather History for KLVM - April, 2014

Change the Weather History Date:

Wednesday, April 2, 2014

  Actual Average Record
Temperature  
Mean Temperature 36 °F 39 °F  
Max Temperature 46 °F 51 °F 72 °F (1990)
Min Temperature 26 °F 27 °F 2 °F (2002)
Degree Days  
Heating Degree Days 29 26  
Month to date heating degree days 59 52  
Since 1 July heating degree days 6231 6311  
Cooling Degree Days 0 0  
Month to date cooling degree days 0 0  
Year to date cooling degree days 0 0  
Moisture  
Dew Point 24 °F    
Average Humidity 69    
Maximum Humidity 92    
Minimum Humidity 45    
Precipitation  
Precipitation T in 0.05 in 0.65 in (2007)
Month to date precipitation T 0.09  
Year to date precipitation 3.08 1.92  
Sea Level Pressure  
Sea Level Pressure 29.79 in    
Wind  
Wind Speed 9 mph (North)    
Max Wind Speed 24 mph    
Max Gust Speed 29 mph    
Visibility 7 miles    
Events Snow    
T = Trace of Precipitation, MM = Missing Value Source: NWS Daily Summary

Daily Weather History Graph

Daily Weather History Graph

Search for Another Location

Airport or City:

Trip Planner

Search our weather history database for the weather conditions in past years. The results will help you decide how hot, cold, wet, or windy it might be!

Date:

Astronomy

Apr. 02, 2014 Rise Set
Actual Time 6:59 AM MDT 7:51 PM MDT
Civil Twilight 6:29 AM MDT 8:21 PM MDT
Nautical Twilight 5:53 AM MDT 8:57 PM MDT
Astronomical Twilight 5:16 AM MDT 9:35 PM MDT
Moon 8:38 AM MDT (4/2) 11:27 PM MDT (4/2)
Length of Visible Light 13h 51m
Length of Day
12h 51m
Waxing Crescent, 10% of the Moon is Illuminated
Apr 2
Waxing Crescent
Apr 7
First Quarter
Apr 15
Full
Apr 22
Last Quarter
Apr 29
New

Hourly Weather History & Observations

Time (MDT) Temp. Windchill Dew Point Humidity Pressure Visibility Wind Dir Wind Speed Gust Speed Precip Events Conditions
12:53 AM 30.0 °F 18.3 °F 25.0 °F 82% 29.82 in 10.0 mi East 17.3 mph - N/A   Overcast
1:27 AM 30.0 °F 19.1 °F 24.1 °F 79% 29.75 in 10.0 mi East 15.0 mph - N/A   Overcast
1:53 AM 30.0 °F 20.0 °F 24.1 °F 79% 29.81 in 10.0 mi East 12.7 mph - N/A   Overcast
2:43 AM 28.9 °F 16.9 °F 24.1 °F 82% 29.74 in 10.0 mi East 17.3 mph - N/A   Overcast
2:53 AM 28.9 °F 17.3 °F 24.1 °F 82% 29.79 in 10.0 mi East 16.1 mph - N/A   Overcast
3:23 AM 28.0 °F 16.1 °F 24.1 °F 85% 29.73 in 10.0 mi East 16.1 mph - N/A   Overcast
3:53 AM 28.0 °F 17.5 °F 23.0 °F 81% 29.78 in 10.0 mi East 12.7 mph - N/A   Overcast
4:40 AM 27.0 °F 18.0 °F 24.1 °F 89% 29.74 in 5.0 mi ENE 9.2 mph - N/A   Overcast
4:53 AM 27.0 °F 17.3 °F 24.1 °F 89% 29.79 in 5.0 mi ENE 10.4 mph - N/A   Overcast
6:49 AM 26.6 °F 17.5 °F 23.0 °F 86% 29.74 in 3.0 mi East 9.2 mph - 0.00 in Snow Light Snow
6:53 AM 27.0 °F 18.7 °F 23.0 °F 85% 29.81 in 3.0 mi East 8.1 mph - 0.00 in Snow Light Snow
7:00 AM 27.0 °F 18.7 °F 23.0 °F 85% 29.74 in 2.0 mi East 8.1 mph - 0.00 in Snow Light Snow
7:05 AM 27.0 °F 19.5 °F 23.0 °F 85% 29.74 in 1.5 mi East 6.9 mph - 0.00 in Snow Light Snow
7:23 AM 27.0 °F 20.5 °F 23.0 °F 85% 29.74 in 1.0 mi East 5.8 mph - 0.00 in Snow Light Snow
7:36 AM 27.0 °F 21.6 °F 24.1 °F 89% 29.74 in 1.5 mi East 4.6 mph - 0.00 in Snow Light Snow
7:46 AM 27.0 °F 21.6 °F 24.1 °F 89% 29.74 in 2.5 mi East 4.6 mph - 0.00 in Snow Light Snow
7:50 AM 26.6 °F 21.2 °F 23.0 °F 86% 29.74 in 3.0 mi ESE 4.6 mph - 0.00 in Snow Light Snow
7:53 AM 27.0 °F 23.0 °F 23.0 °F 85% 29.83 in 3.0 mi ESE 3.5 mph - 0.00 in Snow Light Snow
8:08 AM 27.0 °F 23.0 °F 23.0 °F 85% 29.74 in 4.0 mi ESE 3.5 mph - 0.00 in Snow Light Snow
8:50 AM 28.4 °F - 23.0 °F 80% 29.74 in 10.0 mi Calm Calm - 0.00 in   Overcast
8:53 AM 28.0 °F - 23.0 °F 81% 29.83 in 10.0 mi Calm Calm - 0.00 in   Overcast
9:08 AM 28.0 °F 22.8 °F 24.1 °F 85% 29.74 in 10.0 mi WNW 4.6 mph - N/A   Overcast
9:17 AM 28.0 °F 24.2 °F 23.0 °F 81% 29.74 in 9.0 mi West 3.5 mph - N/A   Overcast
9:29 AM 28.0 °F 22.8 °F 23.0 °F 81% 29.74 in 7.0 mi West 4.6 mph - N/A   Overcast
9:36 AM 28.9 °F 23.9 °F 24.1 °F 82% 29.74 in 8.0 mi West 4.6 mph - N/A   Overcast
9:53 AM 28.9 °F 23.9 °F 23.0 °F 78% 29.83 in 10.0 mi WSW 4.6 mph - N/A   Overcast
10:02 AM 30.0 °F 24.1 °F 24.1 °F 79% 29.74 in 10.0 mi West 5.8 mph - N/A   Overcast
10:42 AM 30.0 °F 25.2 °F 24.1 °F 79% 29.75 in 2.0 mi WSW 4.6 mph - 0.00 in Snow Light Snow
10:51 AM 30.2 °F 25.4 °F 24.8 °F 80% 29.75 in 5.0 mi NW 4.6 mph - 0.00 in Snow Light Snow
10:53 AM 30.9 °F 27.5 °F 25.0 °F 79% 29.84 in 5.0 mi WNW 3.5 mph - 0.00 in   Haze
11:53 AM 34.0 °F 28.0 °F 25.0 °F 70% 29.83 in 10.0 mi NNW 6.9 mph - N/A   Overcast
12:53 PM 36.0 °F 29.6 °F 25.0 °F 64% 29.81 in 10.0 mi NW 8.1 mph - N/A   Overcast
1:53 PM 41.0 °F 35.8 °F 26.1 °F 55% 29.79 in 10.0 mi NW 8.1 mph - N/A   Mostly Cloudy
2:16 PM 39.9 °F 32.5 °F 26.1 °F 58% 29.73 in 10.0 mi NW 12.7 mph - N/A   Mostly Cloudy
2:53 PM 41.0 °F 34.7 °F 27.0 °F 57% 29.79 in 10.0 mi WNW 10.4 mph - N/A   Overcast
4:53 PM 45.0 °F 38.5 °F 24.1 °F 44% 29.78 in 10.0 mi WSW 13.8 mph 20.7 mph N/A   Clear
5:53 PM 43.0 °F 36.4 °F 24.1 °F 47% 29.80 in 10.0 mi WSW 12.7 mph - N/A   Mostly Cloudy
6:53 PM 42.1 °F 35.7 °F 25.0 °F 51% 29.81 in 10.0 mi WSW 11.5 mph - N/A   Scattered Clouds
7:53 PM 37.9 °F 32.1 °F 28.0 °F 68% 29.86 in 3.0 mi North 8.1 mph 25.3 mph 0.00 in Snow Light Snow
8:53 PM 36.0 °F 26.3 °F 28.9 °F 76% 29.90 in 10.0 mi SW 16.1 mph - 0.00 in   Overcast
9:53 PM 36.0 °F 27.5 °F 28.0 °F 73% 29.91 in 10.0 mi WSW 12.7 mph - N/A   Overcast
10:53 PM 35.1 °F 27.9 °F 27.0 °F 72% 29.94 in 10.0 mi WSW 9.2 mph - N/A   Overcast
11:53 PM 36.0 °F 31.1 °F 27.0 °F 70% 29.96 in 10.0 mi WNW 5.8 mph - 0.00 in   Overcast